Regional Weather Roundup
Issued by NWS Upton, NY

Home | Current Version | Previous Version | Text Only | Print | Product List | Glossary On
Versions: 1 2 3 4 5 6 7 8 9 10 11 12 13 14 15 16 17 18 19 20 21 22 23 24 25 26 27 28 29 30 31 32 33 34 35 36 37 38 39 40 41 42 43 44 45 46 47 48 49 50
000
ASUS41 KOKX 061308
RWROKX

REGIONAL WEATHER ROUNDUP
NATIONAL WEATHER SERVICE NEW YORK NY
800 AM EST TUE DEC 06 2016

NOTE: "FAIR" INDICATES FEW OR NO CLOUDS BELOW 12,000 FEET WITH NO
SIGNIFICANT WEATHER AND/OR OBSTRUCTIONS TO VISIBILITY.

NYZ071-072-176-178-NJZ106-104-061400-
NEW YORK CITY METRO AREA

CITY           SKY/WX    TMP DP  RH WIND       PRES   REMARKS
Central Park   PTCLDY    39  28  64 CALM      30.15F
Wall St Helipt MOSUNNY   43  31  62 NE6       30.14F
Bronx Bot Gard NOT AVBL
LaGuardia APRT MOCLDY    42  29  59 NE3       30.13F
Kennedy INTL   MOCLDY    38  28  67 N7        30.14F WCI  33
Breezy Point     N/A     39 N/A N/A N7          N/A  WCI  34
Newark/Liberty MOCLDY    36  29  75 N9        30.14F WCI  29
Teterboro      PTCLDY    34  28  79 CALM      30.13F
$$

NYZ177-179-078>081-061400-
LONG ISLAND NEW YORK

CITY           SKY/WX    TMP DP  RH WIND       PRES   REMARKS
Jones Beach      N/A     37 N/A N/A N8          N/A  WCI  31
Matinecock PT    N/A     43 N/A N/A NW3         N/A
Farmingdale    PTCLDY    35  30  82 CALM      30.14S
MacArthur/ISP  PTCLDY    32  29  88 CALM      30.13R
Shirley        CLEAR     29  28  96 CALM      30.13S
Westhampton    CLEAR     26  23  88 N3        30.13F
Southampton    NOT AVBL
Bridgehampton  NOT AVBL
East Hampton     N/A     32  30  90 N3        30.12S
Montauk          N/A     43  31  62 N9        30.13S
$$

NYZ052-065-067-061400-
HUDSON VALLEY

CITY           SKY/WX    TMP DP  RH WIND       PRES   REMARKS
White Plains   CLEAR     33  29  85 CALM      30.11S
Newburgh       CLEAR     27  27 100 CALM      30.12F
Montgomery     CLEAR     26  23  88 CALM      30.12S
Poughkeepsie   CLEAR     25  22  88 CALM      30.12F
Albany         PTCLDY    30  28  92 CALM      30.13R
$$

NJZ001-105-106-008-010-013-015-019>022-104-061400-
NEW JERSEY

CITY           SKY/WX    TMP DP  RH WIND       PRES   REMARKS
Newark/Liberty MOCLDY    36  29  75 N9        30.14F WCI  29
Teterboro      PTCLDY    34  28  79 CALM      30.13F
Caldwell       PTCLDY    29  26  89 CALM      30.14F
Somerville     CLOUDY    27  24  89 NW3       30.12F
Linden           N/A     37  28  71 CALM      30.14F
Sussex         CLOUDY    23  22  96 CALM      30.13S
Andover          N/A     25  23  92 CALM      30.13F
Trenton        CLOUDY    36  28  73 N3        30.12F
Millville      CLOUDY    38  32  79 NE6       30.11F WCI  33
Atlantic City  CLOUDY    37  30  75 CALM      30.13S
Wrightstown    CLOUDY    34  28  77 NE5       30.10S WCI  30
Toms River     PTCLDY    30  29  96 CALM      30.14R
Belmar         CLOUDY    33  31  92 N5        30.14S WCI  29
$$

PAZ047>061-062-071-061400-
EASTERN PENNSYLVANIA

CITY           SKY/WX    TMP DP  RH WIND       PRES   REMARKS
Philadelphia   CLOUDY    39  30  70 NE7       30.14S WCI  34
Allentown      PTCLDY    28  25  88 CALM      30.13S
Scranton       CLOUDY    30  26  85 E6        30.10F WCI  24
$$

CTZ002-004>006-009-010-012-RIZ004-006-007-MAZ004-011-015-061400-
SOUTHERN NEW ENGLAND
 IN CT

CITY           SKY/WX    TMP DP  RH WIND       PRES   REMARKS
Bradley INTL   PTCLDY    31  26  82 CALM      30.12F
Hartford       CLEAR     30  29  96 CALM      30.12F
Danbury        CLEAR     25  22  88 CALM      30.13S
Wtrbury/Oxford CLEAR     28  25  86 CALM      30.11S
Bridgeport     CLEAR     34  27  75 NW5       30.13S WCI  30
Meriden        CLEAR     28  26  92 CALM      30.12S
New Haven      PTCLDY    28  27  96 CALM      30.13S
Chester          N/A     32  28  86 CALM      30.11S
Groton         CLEAR     33  29  85 CALM      30.12S
Wilimantic     CLEAR     27  24  89 NE3       30.14S

 IN RI

CITY           SKY/WX    TMP DP  RH WIND       PRES   REMARKS
Providence     PTCLDY    32  29  88 CALM      30.13S
Block Island   CLEAR     41  32  70 N12G17    30.12S
Westerly       CLEAR     32  27  81 CALM      30.12F
 IN MA

CITY           SKY/WX    TMP DP  RH WIND       PRES   REMARKS
Boston         PTCLDY    37  30  75 NW5       30.13R WCI  33
Worcester      CLEAR     30  26  85 W7        30.08S WCI  23
Westfield      CLEAR     27  27 100 CALM      30.12S
Provincetown   PTCLDY    40  32  73 NW13      30.11R WCI  32
Nantucket      PTCLDY    41  32  70 N16       30.10R
$$

ANZ330-335-338-340-345-350-353-355-061400-
COASTAL MARINE OBSERVATIONS


STATION/POSITION TIME  SKY/WX   TEMP    WIND        PRES    VSBY  WAVE
                                AIR SEA DIR/SP/G                  HT/PER
                 (UTC)          (F)     (DEG/KT/KT) (MB)    (MI)  (FT/S)
NY HARB ENTRANCE 1150            44 52   10/ 12/ 14 1020.3          2/ 9
20 S FIRE ISLAND 1150            45 54   10/ 14/ 16 1019.9          3/10
GREAT SOUTH BAY  NOT AVBL
23 SSW MONTAUK P 1150            45 53  350/ 16/ 19 1019.9          3/ 4
15 E BARNEGAT LI 1230               53                N/A           3/ 9
HUDSON CANYON    1150            49 58              1019.1          5/ 5
KINGS POINT      1230            39 48              1020.6
EXECUTION ROCKS  1245            42     250/  4/  4   N/A
CENTRAL LI SOUND 1153            42 50  350/  6/  8   N/A           1/ 3
EASTERN LI SOUND NOT AVBL
ROBBINS REEF     1230            39     350/  6/  7 1020.6
$$


>>>>>>>>>>>>>>>>>>>>>>>>>>>> KEY <<<<<<<<<<<<<<<<<<<<<<<<<<<
>                                                          <
>     SKY/WX - Sky Condition/Present Weather               <
>     TMP    - Temperature in Fahrenheit                   <
>     DP     - Dew Point in Fahrenheit                     <
>     RH     - Relative Humidity in Percent                <
>     WIND   - Direction (from) and Speed in MPH           <
>     PRES   - Mean Sea Level Pressure (inches of Hg)      <
>     WCI    - Wind Chill Index                            <
>     VSB    - VISIBILITY IN MILES                         <
>     HX     - HEAT INDEX                                  <
>     TC     - TEMPERATURE IN CELSIUS                      <
>     VRB    - VARIABLE WIND DIRECTION                     <
>                                                          <
>>>>>>>>>>>>>>>>>>>>>>>>>>>> KEY <<<<<<<<<<<<<<<<<<<<<<<<<<<



USA.gov is the U.S. government's official web portal to all federal, state and local government web resources and services.